﻿測定場所 (Monitoring sites),日付 (Measurement date),時間 (Measurement time),線量率 最大値 (max) μGy/h,線量率 最小値 (min) μGy/h,線量率 平均値 (average) μGy/h,
足立 (Adachi),2014-03-02,23:01～24:00,0.0542,0.0474,0.0498,
足立 (Adachi),2014-03-02,22:01～23:00,0.0510,0.0456,0.0480,
足立 (Adachi),2014-03-02,21:01～22:00,0.0545,0.0463,0.0504,
足立 (Adachi),2014-03-02,20:01～21:00,0.0609,0.0519,0.0572,
足立 (Adachi),2014-03-02,19:01～20:00,0.0704,0.0567,0.0636,
足立 (Adachi),2014-03-02,18:01～19:00,0.0764,0.0633,0.0696,
足立 (Adachi),2014-03-02,17:01～18:00,0.0750,0.0624,0.0691,
足立 (Adachi),2014-03-02,16:01～17:00,0.0667,0.0537,0.0603,
足立 (Adachi),2014-03-02,15:01～16:00,0.0597,0.0512,0.0546,
足立 (Adachi),2014-03-02,14:01～15:00,0.0583,0.0501,0.0547,
足立 (Adachi),2014-03-02,13:01～14:00,0.0539,0.0484,0.0506,
足立 (Adachi),2014-03-02,12:01～13:00,0.0537,0.0484,0.0510,
足立 (Adachi),2014-03-02,11:01～12:00,0.0536,0.0452,0.0494,
足立 (Adachi),2014-03-02,10:01～11:00,0.0505,0.0441,0.0465,
足立 (Adachi),2014-03-02,09:01～10:00,0.0508,0.0455,0.0482,
足立 (Adachi),2014-03-02,08:01～09:00,0.0605,0.0479,0.0537,
足立 (Adachi),2014-03-02,07:01～08:00,0.0633,0.0544,0.0593,
足立 (Adachi),2014-03-02,06:01～07:00,0.0661,0.0565,0.0610,
足立 (Adachi),2014-03-02,05:01～06:00,0.0670,0.0576,0.0628,
足立 (Adachi),2014-03-02,04:01～05:00,0.0656,0.0564,0.0613,
足立 (Adachi),2014-03-02,03:01～04:00,0.0689,0.0603,0.0652,
足立 (Adachi),2014-03-02,02:01～03:00,0.0686,0.0610,0.0647,
足立 (Adachi),2014-03-02,01:01～02:00,0.0635,0.0456,0.0527,
足立 (Adachi),2014-03-02,00:01～01:00,0.0533,0.0442,0.0479,
足立 (Adachi),2014-03-01,23:01～24:00,0.0505,0.0432,0.0459,
足立 (Adachi),2014-03-01,22:01～23:00,0.0502,0.0432,0.0459,
足立 (Adachi),2014-03-01,21:01～22:00,0.0520,0.0435,0.0480,
足立 (Adachi),2014-03-01,20:01～21:00,0.0637,0.0470,0.0540,
足立 (Adachi),2014-03-01,19:01～20:00,0.0691,0.0589,0.0650,
足立 (Adachi),2014-03-01,18:01～19:00,0.0678,0.0501,0.0599,
足立 (Adachi),2014-03-01,17:01～18:00,0.0542,0.0467,0.0500,
足立 (Adachi),2014-03-01,16:01～17:00,0.0526,0.0462,0.0497,
足立 (Adachi),2014-03-01,15:01～16:00,0.0489,0.0432,0.0463,
足立 (Adachi),2014-03-01,14:01～15:00,0.0493,0.0439,0.0463,
足立 (Adachi),2014-03-01,13:01～14:00,0.0509,0.0444,0.0481,
足立 (Adachi),2014-03-01,12:01～13:00,0.0510,0.0453,0.0485,
足立 (Adachi),2014-03-01,11:01～12:00,0.0521,0.0454,0.0489,
足立 (Adachi),2014-03-01,10:01～11:00,0.0560,0.0454,0.0506,
足立 (Adachi),2014-03-01,09:01～10:00,0.0546,0.0472,0.0506,
足立 (Adachi),2014-03-01,08:01～09:00,0.0542,0.0445,0.0480,
足立 (Adachi),2014-03-01,07:01～08:00,0.0502,0.0442,0.0467,
足立 (Adachi),2014-03-01,06:01～07:00,0.0497,0.0427,0.0466,
足立 (Adachi),2014-03-01,05:01～06:00,0.0492,0.0431,0.0459,
足立 (Adachi),2014-03-01,04:01～05:00,0.0492,0.0416,0.0452,
足立 (Adachi),2014-03-01,03:01～04:00,0.0489,0.0403,0.0456,
足立 (Adachi),2014-03-01,02:01～03:00,0.0493,0.0432,0.0458,
足立 (Adachi),2014-03-01,01:01～02:00,0.0491,0.0434,0.0463,
足立 (Adachi),2014-03-01,00:01～01:00,0.0501,0.0435,0.0459,
足立 (Adachi),2014-02-28,23:01～24:00,0.0503,0.0424,0.0452,
足立 (Adachi),2014-02-28,22:01～23:00,0.0496,0.0418,0.0454,
足立 (Adachi),2014-02-28,21:01～22:00,0.0482,0.0409,0.0449,
足立 (Adachi),2014-02-28,20:01～21:00,0.0474,0.0417,0.0451,
足立 (Adachi),2014-02-28,19:01～20:00,0.0473,0.0420,0.0450,
足立 (Adachi),2014-02-28,18:01～19:00,0.0483,0.0417,0.0446,
足立 (Adachi),2014-02-28,17:01～18:00,0.0471,0.0416,0.0446,
足立 (Adachi),2014-02-28,16:01～17:00,0.0479,0.0416,0.0449,
足立 (Adachi),2014-02-28,15:01～16:00,0.0475,0.0411,0.0444,
足立 (Adachi),2014-02-28,14:01～15:00,0.0484,0.0427,0.0449,
足立 (Adachi),2014-02-28,13:01～14:00,0.0477,0.0408,0.0443,
足立 (Adachi),2014-02-28,12:01～13:00,0.0489,0.0420,0.0450,
足立 (Adachi),2014-02-28,11:01～12:00,0.0483,0.0415,0.0445,
足立 (Adachi),2014-02-28,10:01～11:00,0.0482,0.0414,0.0450,
足立 (Adachi),2014-02-28,09:01～10:00,0.0482,0.0402,0.0447,
足立 (Adachi),2014-02-28,08:01～09:00,0.0465,0.0392,0.0430,
足立 (Adachi),2014-02-28,07:01～08:00,0.0463,0.0400,0.0436,
足立 (Adachi),2014-02-28,06:01～07:00,0.0481,0.0416,0.0440,
足立 (Adachi),2014-02-28,05:01～06:00,0.0491,0.0421,0.0444,
足立 (Adachi),2014-02-28,04:01～05:00,0.0509,0.0430,0.0474,
足立 (Adachi),2014-02-28,03:01～04:00,0.0605,0.0485,0.0548,
足立 (Adachi),2014-02-28,02:01～03:00,0.0629,0.0554,0.0588,
足立 (Adachi),2014-02-28,01:01～02:00,0.0599,0.0530,0.0561,
足立 (Adachi),2014-02-28,00:01～01:00,0.0598,0.0521,0.0561,
足立 (Adachi),2014-02-27,23:01～24:00,0.0613,0.0535,0.0571,
足立 (Adachi),2014-02-27,22:01～23:00,0.0583,0.0488,0.0541,
足立 (Adachi),2014-02-27,21:01～22:00,0.0548,0.0448,0.0493,
足立 (Adachi),2014-02-27,20:01～21:00,0.0519,0.0455,0.0486,
足立 (Adachi),2014-02-27,19:01～20:00,0.0549,0.0468,0.0505,
足立 (Adachi),2014-02-27,18:01～19:00,0.0513,0.0438,0.0478,
足立 (Adachi),2014-02-27,17:01～18:00,0.0489,0.0424,0.0458,
足立 (Adachi),2014-02-27,16:01～17:00,0.0480,0.0423,0.0458,
足立 (Adachi),2014-02-27,15:01～16:00,0.0495,0.0427,0.0462,
足立 (Adachi),2014-02-27,14:01～15:00,0.0497,0.0433,0.0463,
足立 (Adachi),2014-02-27,13:01～14:00,0.0509,0.0433,0.0460,
足立 (Adachi),2014-02-27,12:01～13:00,0.0489,0.0437,0.0467,
足立 (Adachi),2014-02-27,11:01～12:00,0.0519,0.0450,0.0486,
足立 (Adachi),2014-02-27,10:01～11:00,0.0527,0.0458,0.0494,
足立 (Adachi),2014-02-27,09:01～10:00,0.0537,0.0467,0.0505,
足立 (Adachi),2014-02-27,08:01～09:00,0.0554,0.0481,0.0512,
足立 (Adachi),2014-02-27,07:01～08:00,0.0517,0.0418,0.0474,
足立 (Adachi),2014-02-27,06:01～07:00,0.0502,0.0434,0.0465,
足立 (Adachi),2014-02-27,05:01～06:00,0.0508,0.0426,0.0471,
足立 (Adachi),2014-02-27,04:01～05:00,0.0496,0.0439,0.0469,
足立 (Adachi),2014-02-27,03:01～04:00,0.0508,0.0434,0.0472,
足立 (Adachi),2014-02-27,02:01～03:00,0.0497,0.0443,0.0470,
足立 (Adachi),2014-02-27,01:01～02:00,0.0502,0.0439,0.0471,
足立 (Adachi),2014-02-27,00:01～01:00,0.0497,0.0437,0.0470,
足立 (Adachi),2014-02-26,23:01～24:00,0.0507,0.0440,0.0469,
足立 (Adachi),2014-02-26,22:01～23:00,0.0499,0.0434,0.0463,
足立 (Adachi),2014-02-26,21:01～22:00,0.0500,0.0432,0.0464,
足立 (Adachi),2014-02-26,20:01～21:00,0.0503,0.0437,0.0469,
足立 (Adachi),2014-02-26,19:01～20:00,0.0514,0.0440,0.0467,
足立 (Adachi),2014-02-26,18:01～19:00,0.0493,0.0437,0.0464,
足立 (Adachi),2014-02-26,17:01～18:00,0.0494,0.0422,0.0459,
足立 (Adachi),2014-02-26,16:01～17:00,0.0490,0.0431,0.0460,
足立 (Adachi),2014-02-26,15:01～16:00,0.0490,0.0430,0.0461,
足立 (Adachi),2014-02-26,14:01～15:00,0.0487,0.0427,0.0459,
足立 (Adachi),2014-02-26,13:01～14:00,0.0501,0.0427,0.0463,
足立 (Adachi),2014-02-26,12:01～13:00,0.0494,0.0440,0.0463,
足立 (Adachi),2014-02-26,11:01～12:00,0.0492,0.0433,0.0465,
足立 (Adachi),2014-02-26,10:01～11:00,0.0499,0.0441,0.0466,
足立 (Adachi),2014-02-26,09:01～10:00,0.0499,0.0437,0.0468,
足立 (Adachi),2014-02-26,08:01～09:00,0.0486,0.0430,0.0461,
足立 (Adachi),2014-02-26,07:01～08:00,0.0491,0.0435,0.0462,
足立 (Adachi),2014-02-26,06:01～07:00,0.0498,0.0436,0.0462,
足立 (Adachi),2014-02-26,05:01～06:00,0.0498,0.0426,0.0462,
足立 (Adachi),2014-02-26,04:01～05:00,0.0493,0.0438,0.0465,
足立 (Adachi),2014-02-26,03:01～04:00,0.0495,0.0438,0.0467,
足立 (Adachi),2014-02-26,02:01～03:00,0.0502,0.0438,0.0469,
足立 (Adachi),2014-02-26,01:01～02:00,0.0492,0.0433,0.0466,
足立 (Adachi),2014-02-26,00:01～01:00,0.0507,0.0439,0.0470,
足立 (Adachi),2014-02-25,23:01～24:00,0.0506,0.0439,0.0470,
足立 (Adachi),2014-02-25,22:01～23:00,0.0501,0.0436,0.0466,
足立 (Adachi),2014-02-25,21:01～22:00,0.0501,0.0434,0.0462,
足立 (Adachi),2014-02-25,20:01～21:00,0.0494,0.0419,0.0465,
足立 (Adachi),2014-02-25,19:01～20:00,0.0498,0.0436,0.0464,
足立 (Adachi),2014-02-25,18:01～19:00,0.0481,0.0431,0.0458,
足立 (Adachi),2014-02-25,17:01～18:00,0.0484,0.0434,0.0461,
足立 (Adachi),2014-02-25,16:01～17:00,0.0503,0.0434,0.0464,
足立 (Adachi),2014-02-25,15:01～16:00,0.0487,0.0434,0.0460,
足立 (Adachi),2014-02-25,14:01～15:00,0.0514,0.0423,0.0463,
足立 (Adachi),2014-02-25,13:01～14:00,0.0512,0.0439,0.0468,
足立 (Adachi),2014-02-25,12:01～13:00,0.0503,0.0429,0.0468,
足立 (Adachi),2014-02-25,11:01～12:00,0.0494,0.0443,0.0468,
足立 (Adachi),2014-02-25,10:01～11:00,0.0503,0.0433,0.0473,
足立 (Adachi),2014-02-25,09:01～10:00,0.0508,0.0439,0.0469,
足立 (Adachi),2014-02-25,08:01～09:00,0.0504,0.0429,0.0467,
足立 (Adachi),2014-02-25,07:01～08:00,0.0488,0.0427,0.0461,
足立 (Adachi),2014-02-25,06:01～07:00,0.0496,0.0430,0.0462,
足立 (Adachi),2014-02-25,05:01～06:00,0.0500,0.0436,0.0466,
足立 (Adachi),2014-02-25,04:01～05:00,0.0496,0.0440,0.0467,
足立 (Adachi),2014-02-25,03:01～04:00,0.0486,0.0418,0.0461,
足立 (Adachi),2014-02-25,02:01～03:00,0.0490,0.0425,0.0460,
足立 (Adachi),2014-02-25,01:01～02:00,0.0492,0.0424,0.0463,
足立 (Adachi),2014-02-25,00:01～01:00,0.0492,0.0421,0.0460,
足立 (Adachi),2014-02-24,23:01～24:00,0.0500,0.0441,0.0464,
足立 (Adachi),2014-02-24,22:01～23:00,0.0503,0.0430,0.0463,
足立 (Adachi),2014-02-24,21:01～22:00,0.0481,0.0426,0.0453,
足立 (Adachi),2014-02-24,20:01～21:00,0.0495,0.0419,0.0461,
足立 (Adachi),2014-02-24,19:01～20:00,0.0480,0.0419,0.0454,
足立 (Adachi),2014-02-24,18:01～19:00,0.0501,0.0426,0.0455,
足立 (Adachi),2014-02-24,17:01～18:00,0.0493,0.0425,0.0457,
足立 (Adachi),2014-02-24,16:01～17:00,0.0501,0.0417,0.0454,
足立 (Adachi),2014-02-24,15:01～16:00,0.0492,0.0422,0.0456,
足立 (Adachi),2014-02-24,14:01～15:00,0.0485,0.0429,0.0458,
足立 (Adachi),2014-02-24,13:01～14:00,0.0503,0.0424,0.0457,
足立 (Adachi),2014-02-24,12:01～13:00,0.0504,0.0430,0.0458,
足立 (Adachi),2014-02-24,11:01～12:00,0.0517,0.0436,0.0462,
足立 (Adachi),2014-02-24,10:01～11:00,0.0493,0.0427,0.0461,
足立 (Adachi),2014-02-24,09:01～10:00,0.0491,0.0434,0.0459,
足立 (Adachi),2014-02-24,08:01～09:00,0.0485,0.0426,0.0456,
足立 (Adachi),2014-02-24,07:01～08:00,0.0487,0.0430,0.0452,
足立 (Adachi),2014-02-24,06:01～07:00,0.0486,0.0432,0.0457,
足立 (Adachi),2014-02-24,05:01～06:00,0.0495,0.0436,0.0464,
足立 (Adachi),2014-02-24,04:01～05:00,0.0491,0.0433,0.0461,
足立 (Adachi),2014-02-24,03:01～04:00,0.0494,0.0428,0.0461,
足立 (Adachi),2014-02-24,02:01～03:00,0.0493,0.0425,0.0462,
足立 (Adachi),2014-02-24,01:01～02:00,0.0492,0.0422,0.0458,
足立 (Adachi),2014-02-24,00:01～01:00,0.0500,0.0426,0.0462,
